Weather History for KPOF - December, 2012

Change the Weather History Date:

Thursday, December 20, 2012

  Actual Average (KCGI) Record (KCGI)
Temperature  
Mean Temperature 49 °F 35 °F  
Max Temperature 64 °F 44 °F 66 °F (1967)
Min Temperature 34 °F 26 °F 3 °F (2000)
Degree Days  
Heating Degree Days 16 30  
Month to date heating degree days 557  
Since 1 July heating degree days 1408  
Cooling Degree Days 0 0  
Month to date cooling degree days 0  
Year to date cooling degree days 1453  
Moisture  
Dew Point 40 °F    
Average Humidity 70    
Maximum Humidity 94    
Minimum Humidity 48    
Precipitation  
Precipitation 0.32 in 0.14 in 1.02 in (1962)
Month to date precipitation 2.84  
Year to date precipitation 45.40  
Sea Level Pressure  
Sea Level Pressure 29.62 in    
Wind  
Wind Speed 19 mph (WSW)    
Max Wind Speed 30 mph    
Max Gust Speed 44 mph    
Visibility 9 miles    
Events Rain , Thunderstorm    
T = Trace of Precipitation, MM = Missing Value Source: NWS Daily Summary

Daily Weather History Graph

Daily Weather History Graph

Search for Another Location

Airport or City:

Trip Planner

Search our weather history database for the weather conditions in past years. The results will help you decide how hot, cold, wet, or windy it might be!

Date:

Astronomy

Dec. 20, 2012 Rise Set
Actual Time 7:09 AM CST 4:48 PM CST
Civil Twilight 6:40 AM CST 5:17 PM CST
Nautical Twilight 6:08 AM CST 5:49 PM CST
Astronomical Twilight 5:36 AM CST 6:21 PM CST
Moon 11:59 AM CST (12/20) 12:05 AM CST (12/20)
Length of Visible Light 10h 36m
Length of Day
9h 38m
First Quarter, 55% of the Moon is Illuminated
Dec 20
First Quarter
Dec 28
Full
Jan 4
Last Quarter
Jan 11
New
Jan 18
First Quarter

Hourly Weather History & Observations

Time (CST) Temp. Windchill Dew Point Humidity Pressure Visibility Wind Dir Wind Speed Gust Speed Precip Events Conditions
12:53 AM 63.0 °F - 50.0 °F 63% 29.49 in 10.0 mi SSE 19.6 mph 28.8 mph N/A   Overcast
1:32 AM 62.6 °F - 51.8 °F 68% 29.48 in 10.0 mi South 21.9 mph 29.9 mph N/A   Overcast
1:53 AM 64.0 °F - 54.0 °F 70% 29.45 in 10.0 mi South 23.0 mph 32.2 mph N/A   Overcast
2:45 AM 64.4 °F - 57.2 °F 77% 29.42 in 10.0 mi South 20.7 mph 34.5 mph 0.00 in Rain , Thunderstorm Light Thunderstorms and Rain
2:53 AM 63.0 °F - 57.9 °F 84% 29.47 in 4.0 mi WSW 20.7 mph 29.9 mph 0.05 in Rain , Thunderstorm Thunderstorms and Rain
2:56 AM 62.6 °F - 57.2 °F 82% 29.47 in 2.0 mi WSW 13.8 mph 29.9 mph 0.02 in Rain , Thunderstorm Heavy Thunderstorms and Rain
3:06 AM 60.8 °F - 57.2 °F 88% 29.46 in 4.0 mi SW 16.1 mph 21.9 mph 0.12 in Rain Rain
3:09 AM 60.8 °F - 59.0 °F 94% 29.46 in 5.0 mi SW 11.5 mph 21.9 mph 0.13 in Rain , Thunderstorm Rain
3:17 AM 60.8 °F - 57.2 °F 88% 29.46 in 6.0 mi SSW 18.4 mph 24.2 mph 0.14 in Rain , Thunderstorm Rain
3:24 AM 60.8 °F - 57.2 °F 88% 29.46 in 7.0 mi SSW 18.4 mph 26.5 mph 0.15 in Rain Light Rain
3:41 AM 59.0 °F - 57.2 °F 94% 29.44 in 8.0 mi South 11.5 mph 20.7 mph 0.19 in Rain Light Rain
3:53 AM 57.9 °F - 55.9 °F 93% 29.42 in 8.0 mi South 10.4 mph - 0.21 in Rain Light Rain
4:53 AM 57.9 °F - 55.0 °F 90% 29.37 in 10.0 mi South 13.8 mph 21.9 mph 0.06 in   Mostly Cloudy
5:49 AM 57.2 °F - 53.6 °F 88% 29.39 in 10.0 mi SSW 25.3 mph 34.5 mph N/A   Mostly Cloudy
5:53 AM 57.9 °F - 52.0 °F 81% 29.39 in 10.0 mi SW 21.9 mph 34.5 mph N/A   Mostly Cloudy
6:06 AM 57.2 °F - 51.8 °F 82% 29.40 in 10.0 mi SSW 24.2 mph 32.2 mph N/A   Scattered Clouds
6:30 AM 57.2 °F - 51.8 °F 82% 29.40 in 10.0 mi SSW 25.3 mph 33.4 mph N/A   Mostly Cloudy
6:45 AM 55.4 °F - 51.8 °F 88% 29.41 in 10.0 mi SW 18.4 mph 29.9 mph N/A   Scattered Clouds
6:53 AM 55.9 °F - 50.0 °F 80% 29.42 in 10.0 mi SW 19.6 mph 28.8 mph N/A   Partly Cloudy
7:53 AM 51.1 °F - 37.0 °F 59% 29.47 in 10.0 mi WSW 19.6 mph 29.9 mph N/A   Mostly Cloudy
8:53 AM 46.9 °F - 30.0 °F 52% 29.54 in 10.0 mi West 29.9 mph 41.4 mph N/A   Scattered Clouds
9:53 AM 44.1 °F 36.5 °F 33.1 °F 65% 29.58 in 10.0 mi WSW 17.3 mph 38.0 mph 0.00 in Rain Light Rain
10:53 AM 41.0 °F 31.1 °F 28.0 °F 60% 29.62 in 10.0 mi WSW 23.0 mph 39.1 mph 0.00 in   Overcast
11:53 AM 39.9 °F 30.0 °F 26.1 °F 58% 29.66 in 10.0 mi West 21.9 mph 43.7 mph N/A   Overcast
12:53 PM 39.0 °F 29.0 °F 25.0 °F 57% 29.69 in 10.0 mi West 20.7 mph 35.7 mph N/A   Overcast
1:53 PM 39.9 °F 30.5 °F 26.1 °F 58% 29.73 in 10.0 mi West 19.6 mph 41.4 mph N/A   Overcast
2:53 PM 41.0 °F 31.1 °F 26.1 °F 55% 29.79 in 10.0 mi West 23.0 mph 36.8 mph N/A   Overcast
3:53 PM 39.0 °F 28.0 °F 25.0 °F 57% 29.85 in 10.0 mi West 25.3 mph 35.7 mph N/A   Overcast
4:53 PM 37.0 °F 27.0 °F 23.0 °F 57% 29.91 in 10.0 mi West 18.4 mph 34.5 mph N/A   Mostly Cloudy
5:53 PM 37.0 °F 27.0 °F 19.9 °F 50% 29.94 in 10.0 mi West 18.4 mph 27.6 mph N/A   Clear
6:53 PM 37.9 °F 27.3 °F 19.9 °F 48% 29.96 in 10.0 mi West 21.9 mph 31.1 mph N/A   Mostly Cloudy
7:53 PM 36.0 °F 26.0 °F 19.0 °F 50% 30.01 in 10.0 mi WNW 17.3 mph 26.5 mph N/A   Clear
8:53 PM 35.1 °F 25.2 °F 19.0 °F 52% 30.04 in 10.0 mi West 16.1 mph 24.2 mph N/A   Clear
9:53 PM 35.1 °F 25.2 °F 18.0 °F 50% 30.05 in 10.0 mi WNW 16.1 mph 24.2 mph N/A   Clear
10:53 PM 34.0 °F 23.0 °F 18.0 °F 52% 30.07 in 10.0 mi West 18.4 mph 27.6 mph N/A   Clear
11:53 PM 34.0 °F 23.8 °F 18.0 °F 52% 30.08 in 10.0 mi West 16.1 mph 23.0 mph N/A   Clear